Location: ČR
(50.0000°N, 15.0000°E)
Time: 14:34:53
(UTC+00:00)

Explorer 7 - Pass Details

Date: 27 October 2021
Orbit: 483 x 675 km, 50.3° (Epoch: 27 November)

Event Time Altitude Azimuth Distance (km) Brightness Sun altitude
Rises 21:03:30 0° 263° (W) 2,670 - -47.8°
Reaches altitude 10° 21:05:40 10° 263° (W) 1,810 - -48.0°
Maximum altitude 21:09:48 88° 350° (N) 575 - -48.4°
Drops below altitude 10° 21:14:13 10° 84° (E) 1,934 - -48.8°
Sets 21:16:35 0° 84° (E) 2,872 - -49.0°
